EW7175 Weather Reports


time (UTC)temp
C
wind
direction
speed
KPH
gust
KPH
rain 1hr
cm
rain 24hr
cm
rain mn
cm
humidity
%
barometer
mb
20260506181550 28 180 0.0 0.0 0.00 0.00 0.00 80 1008.2
20260506180039 28 181 0.0 0.0 0.00 0.00 0.00 82 1008.6
20260506174539 27 196 0.0 0.0 0.00 0.00 0.00 81 1008.8
20260506173036 27 200 0.0 0.0 0.00 0.00 0.00 81 1008.9
20260506171536 27 200 0.0 0.0 0.00 0.00 0.00 82 1009.2
20260506170038 27 170 0.0 0.0 0.00 0.00 0.00 82 1009.2
20260506164545 27 171 0.0 0.0 0.00 0.00 0.00 83 1009.1
20260506163030 27 85 0.0 0.0 0.00 0.00 0.00 84 1009.0
20260506161528 27 86 0.0 0.0 0.00 0.00 0.00 84 1008.8
20260506160027 27 86 0.0 0.0 0.00 0.00 0.00 84 1008.6
20260506154526 27 38 0.0 0.0 0.00 0.00 0.00 84 1008.7
20260506153024 27 38 0.0 0.0 0.00 0.00 0.00 84 1008.6
20260506151522 27 38 0.0 0.0 0.00 0.00 0.00 85 1008.4
20260506150020 27 136 0.0 0.0 0.00 0.00 0.00 85 1008.2
20260506144524 26 105 0.0 0.0 0.00 0.00 0.00 87 1008.1
20260506143014 26 103 0.0 0.0 0.00 0.00 0.00 88 1007.8
20260506141525 26 101 0.0 0.0 0.00 0.00 0.00 88 1007.9
20260506140012 25 101 0.0 0.0 0.00 0.00 0.00 90 1008.0
20260506134510 25 65 0.0 0.0 0.00 0.00 0.00 90 1008.0
20260506133011 25 170 0.0 0.0 0.00 0.00 0.00 91 1008.0
20260506131511 25 171 0.0 0.0 0.00 0.00 0.00 92 1008.3
20260506130009 24 172 0.0 0.0 0.00 0.00 0.00 93 1008.1
20260506124507 24 172 0.0 0.0 0.00 0.00 0.00 93 1008.0
20260506123007 24 172 0.0 0.0 0.00 0.00 0.00 93 1007.9
20260506121511 24 172 0.0 0.0 0.00 0.00 0.00 93 1007.8
20260506120011 23 172 0.0 0.0 0.00 0.00 0.00 93 1007.7
20260506114505 23 172 0.0 0.0 0.00 0.00 0.00 93 1007.5
20260506113003 23 172 0.0 0.0 0.00 0.00 0.00 93 1007.3
20260506111502 23 180 0.0 0.0 0.00 0.00 0.00 93 1007.1
20260506110002 23 181 0.0 0.0 0.00 0.00 0.00 92 1006.8
20260506104615 23 173 0.0 0.0 0.00 0.00 0.00 92 1006.7
20260506103058 24 173 0.0 0.0 0.00 0.00 0.00 91 1006.7
20260506101557 24 176 0.0 0.0 0.00 0.00 0.00 91 1006.7
20260506100110 24 163 0.0 0.0 0.00 0.00 0.00 90 1006.7
20260506094601 24 221 0.0 0.0 0.00 0.00 0.00 90 1006.6
20260506093053 25 147 0.0 0.0 0.00 0.00 0.00 90 1006.3
20260506091552 25 165 0.0 0.0 0.00 0.00 0.00 89 1006.4
20260506090050 25 165 0.0 0.0 0.00 0.00 0.00 89 1006.4
20260506084617 25 165 0.0 0.0 0.00 0.00 0.00 89 1006.5
20260506083048 25 163 0.0 0.0 0.00 0.00 0.00 89 1006.6
20260506081554 25 186 0.0 0.0 0.00 0.00 0.00 89 1006.7
20260506073044 25 162 0.0 0.0 0.00 0.00 0.00 89 1007.2
20260506071541 25 171 0.0 0.0 0.00 0.00 0.00 89 1007.4
20260506061537 25 173 0.0 0.0 0.00 0.00 0.00 88 1007.5
20260506044536 25 152 0.0 0.0 0.00 0.00 0.00 86 1007.3
20260506043029 25 209 0.0 0.0 0.00 0.00 0.00 85 1007.7
20260506041530 25 148 0.0 0.0 0.00 0.00 0.00 84 1007.5
20260506040034 26 178 0.0 0.0 0.00 0.00 0.00 84 1007.5
20260506034532 26 262 0.0 0.0 0.00 0.00 0.00 84 1007.1
20260506033027 26 167 0.0 0.0 0.00 0.00 0.00 84 1007.2
20260506031536 26 175 0.0 0.0 0.00 0.00 0.00 84 1007.0
20260506030027 26 126 0.0 0.0 0.00 0.00 0.00 83 1006.7
20260506024528 26 141 0.0 0.0 0.00 0.00 0.00 83 1006.5
20260506023047 26 168 0.0 0.0 0.00 0.00 0.00 82 1006.2
20260506021538 26 161 0.0 0.0 0.00 0.00 0.00 82 1006.1
20260506020027 26 181 0.0 0.0 0.00 0.00 0.00 81 1006.0
20260506014525 26 190 0.0 0.0 0.00 0.00 0.00 80 1005.9
20260506013031 26 212 0.0 0.0 0.00 0.00 0.00 80 1005.6
20260506011525 26 172 0.0 0.0 0.00 0.00 0.00 80 1005.4
20260506010024 26 171 0.0 0.0 0.00 0.00 0.00 79 1005.0
20260506004527 27 209 0.0 0.0 0.00 0.00 0.00 79 1005.1
20260506003023 27 187 0.0 9.7 0.00 0.00 0.00 78 1005.0
20260506001523 27 173 0.0 0.0 0.00 0.00 0.00 77 1004.9
20260506000023 27 180 0.0 0.0 0.00 0.00 0.00 76 1004.9
20260505234524 27 153 0.0 0.0 0.00 0.00 0.00 76 1004.9
20260505233020 27 174 0.0 0.0 0.00 0.00 0.00 77 1004.8
20260505231535 27 159 0.0 0.0 0.00 0.00 0.00 76 1004.8
20260505230024 27 165 0.0 0.0 0.00 0.00 0.00 76 1004.9
20260505224518 28 175 0.0 0.0 0.00 0.00 0.00 76 1004.8
20260505223018 28 150 0.0 0.0 0.00 0.00 0.00 76 1004.9
20260505221518 28 244 0.0 0.0 0.00 0.00 0.00 76 1004.9
20260505220022 28 144 0.0 0.0 0.00 0.00 0.00 76 1005.0
20260505214516 28 190 0.0 0.0 0.00 0.00 0.00 77 1005.3
20260505213017 28 150 0.0 0.0 0.00 0.00 0.00 75 1005.5
20260505211513 28 187 0.0 0.0 0.00 0.00 0.00 76 1005.6
20260505210013 28 59 0.0 0.0 0.00 0.00 0.00 76 1005.7
20260505204512 28 213 0.0 0.0 0.00 0.00 0.00 74 1005.9
20260505203009 29 153 0.0 0.0 0.00 0.00 0.00 73 1006.0
20260505201502 28 253 0.0 0.0 0.00 0.00 0.00 74 1006.3
20260505200100 28 185 0.0 0.0 0.00 0.00 0.00 76 1006.7
20260505194559 28 182 0.0 0.0 0.00 0.00 0.00 75 1006.7
20260505193058 28 174 0.0 0.0 0.00 0.00 0.00 76 1006.8
20260505191611 28 162 0.0 0.0 0.00 0.00 0.00 75 1006.9
20260505190057 28 176 0.0 0.0 0.00 0.00 0.00 75 1006.9
20260505184552 27 175 0.0 0.0 0.00 0.00 0.00 77 1007.1
20260505183052 27 170 0.0 0.0 0.00 0.00 0.00 78 1007.2